星链-4524 (STARLINK-4524 )

导读

STARLINK-4524是美国SpaceX公司星链计划中的一颗卫星,于2022年8月10日发射入轨。星链计划旨在构建全球卫星互联网星座,为全球提供高速低延迟网络服务,这颗卫星加入星座后,进一步扩充了星链网络的覆盖范围与服务能力,助力全球互联网接入普及。

基本信息
目录编号:
53396
目录名称:
STARLINK-4524
国际标识:
2022-097J
轨道中心:
EARTH
卫星名称:
星链-4524
卫星全名:
星链-4524 (STARLINK-4524 )
卫星状态:
在轨 (已飞行1407 天)
发射日期:
2022-08-10 UTC
国别 :
美国 (US)
星等 :
--
轨道信息
数据来源 国际轨道数据
星历时间: 2026-06-17T05:56:31+0800
12小时前
查看轨道信息
半长轴: 6917.901km
偏心率: 0.0001391
轨道倾角: 53.161°
近地点辐角 93.190°
升交点赤经 38.590°
平近点角 266.925°
近地点: 538.801km
远地点: 540.727km
周期: 95.438分钟
每日圈数: 15.088334
详细信息
固有亮度:
5
最大亮度:
2.5
卫星平台:
Starlink v1.5
覆盖范围:
全球
运营商:
太空探索技术公司
运营商所在国:
美国
制造商(研发单位):
太空探索技术公司
制造商所在国:
美国
使用方式:
暂无
卫星简介
星链(Starlink)计划是由太空探索技术公司(SpaceX)提出的一个巨型低轨卫星互联网星座项目,计划在2019年至2024年间在太空搭建由约1.2万颗卫星组成的“星链”网络,其中1584颗将部署在地球上空550千米处的近地轨道,并从2020年开始工作。该卫星仍在工作。
2D轨道图
3D轨道图
轨道高度分析图
轨道倾角分析图
轨道综合分析图
查看轨道综合分析图